Location: Nians�bougou
(13.2321°N, 4.9818°W)
Time: 18:14:46
(UTC+00:00)

Okean O Rocket - Pass Details

Date: 18 February 2020
Orbit: 622 x 645 km, 98.2° (Epoch: 03 April)

Event Time Altitude Azimuth Distance (km) Brightness Sun altitude
Rises 05:26:59 0° 21° (NNE) 2,898 5.2 -18.7°
Reaches altitude 10° 05:29:15 10° 27° (NNE) 1,989 4.4 -18.2°
Maximum altitude 05:33:23 46° 101° (E) 837 2.7 -17.2°
Drops below altitude 10° 05:37:32 10° 174° (S) 1,984 4.3 -16.2°
Sets 05:39:46 0° 181° (S) 2,889 5.1 -15.7°
